Weather History for Shaw AFB, SC

Change the Weather History Date:

Friday, December 6, 2013

  Actual Average Record
Temperature  
Mean Temperature 70 °F -  
Max Temperature 79 °F 58 °F 80 °F (1998)
Min Temperature 61 °F 37 °F 25 °F (2010)
Cooling Degree Days 5    
Growing Degree Days 20 (Base 50)    
Moisture  
Dew Point 63 °F    
Average Humidity 83    
Maximum Humidity 96    
Minimum Humidity 61    
Precipitation  
Precipitation 0.00 in - - ()
Sea Level Pressure  
Sea Level Pressure 30.07 in    
Wind  
Wind Speed 10 mph (SSW)    
Max Wind Speed 18 mph    
Max Gust Speed 21 mph    
Visibility 10 miles    
Events      
Averages and records for this station are not official NWS values.
T = Trace of Precipitation, MM = Missing Value Source: NWS Daily Summary

Daily Weather History Graph

Daily Weather History Graph

Search for Another Location

Airport:

Trip Planner

Search our weather history database for the weather conditions in past years. The results will help you decide how hot, cold, wet, or windy it might be!

Date:

Astronomy

Dec. 06, 2013 Rise Set
Actual Time 7:13 AM EST 5:12 PM EST
Civil Twilight 6:45 AM EST 5:40 PM EST
Nautical Twilight 6:14 AM EST 6:11 PM EST
Astronomical Twilight 5:44 AM EST 6:41 PM EST
Moon 10:24 AM EST (12/6) 9:35 PM EST (12/6)
Length of Visible Light 10h 54m
Length of Day
9h 59m
Waxing Crescent, 19% of the Moon is Illuminated
Dec 6
Waxing Crescent
Dec 9
First Quarter
Dec 17
Full
Dec 25
Last Quarter
Jan 1
New

Hourly Weather History & Observations

Time (EST) Temp. Dew Point Humidity Pressure Visibility Wind Dir Wind Speed Gust Speed Precip Events Conditions
12:58 AM 66.2 °F 62.4 °F 88% 30.07 in 10.0 mi SSW 10.4 mph - N/A   Clear
1:58 AM 64.0 °F 61.5 °F 91% 30.06 in 10.0 mi SSW 9.2 mph - N/A   Clear
2:58 AM 63.3 °F 61.3 °F 93% 30.07 in 10.0 mi SSW 8.1 mph - N/A   Clear
3:08 AM 64.4 °F 60.8 °F 88% 30.07 in 9.0 mi South 9.2 mph - N/A   Clear
3:18 AM 64.4 °F 60.8 °F 88% 30.06 in 9.0 mi South 8.1 mph - N/A   Clear
3:58 AM 62.4 °F 60.8 °F 94% 30.07 in 10.0 mi SW 5.8 mph - N/A   Clear
4:58 AM 62.4 °F 60.8 °F 94% 30.06 in 10.0 mi SSW 5.8 mph - N/A   Clear
5:58 AM 61.7 °F 60.6 °F 96% 30.07 in 10.0 mi SSW 5.8 mph - N/A   Clear
6:58 AM 62.8 °F 61.3 °F 95% 30.08 in 10.0 mi SSW 6.9 mph - N/A   Clear
7:58 AM 63.3 °F 61.9 °F 95% 30.09 in 10.0 mi SSW 9.2 mph - N/A   Clear
8:58 AM 66.7 °F 63.3 °F 89% 30.12 in 10.0 mi SSW 13.8 mph - N/A   Clear
9:58 AM 70.0 °F 64.0 °F 81% 30.13 in 10.0 mi SW 13.8 mph - N/A   Clear
10:58 AM 75.0 °F 65.3 °F 72% 30.13 in 10.0 mi SSW 13.8 mph - N/A   Partly Cloudy
11:58 AM 77.9 °F 64.9 °F 64% 30.10 in 10.0 mi South 18.4 mph - N/A   Clear
12:58 PM 78.6 °F 64.9 °F 63% 30.07 in 10.0 mi South 15.0 mph - N/A   Clear
1:58 PM 79.7 °F 64.9 °F 61% 30.04 in 10.0 mi SSW 13.8 mph 20.7 mph N/A   Clear
2:58 PM 79.3 °F 64.8 °F 61% 30.03 in 10.0 mi SSW 15.0 mph - N/A   Partly Cloudy
3:58 PM 77.5 °F 65.3 °F 66% 30.03 in 10.0 mi SSW 10.4 mph - N/A   Clear
4:58 PM 74.5 °F 65.5 °F 73% 30.04 in 10.0 mi South 4.6 mph - N/A   Clear
5:58 PM 68.9 °F 64.2 °F 85% 30.04 in 10.0 mi South 5.8 mph - N/A   Clear
6:58 PM 70.0 °F 64.6 °F 83% 30.04 in 10.0 mi South 4.6 mph - N/A   Clear
7:58 PM 69.4 °F 65.1 °F 86% 30.04 in 10.0 mi South 9.2 mph - N/A   Clear
8:58 PM 69.3 °F 65.7 °F 88% 30.04 in 10.0 mi South 9.2 mph - N/A   Clear
9:58 PM 68.5 °F 65.5 °F 90% 30.04 in 10.0 mi South 9.2 mph - N/A   Clear
10:58 PM 68.0 °F 64.9 °F 90% 30.06 in 10.0 mi South 9.2 mph - N/A   Clear
11:58 PM 67.5 °F 64.6 °F 90% 30.05 in 10.0 mi South 10.4 mph - N/A   Clear